Weather History for Destin, FL

Change the Weather History Date:

Friday, September 6, 2013

  Actual Average Record
Temperature  
Mean Temperature 84 °F -  
Max Temperature 93 °F 86 °F 93 °F (2013)
Min Temperature 77 °F 72 °F 64 °F (2011)
Cooling Degree Days 19    
Growing Degree Days 34 (Base 50)    
Moisture  
Dew Point 70 °F    
Average Humidity 63    
Maximum Humidity 84    
Minimum Humidity 42    
Precipitation  
Precipitation 0.00 in - - ()
Sea Level Pressure  
Sea Level Pressure 30.04 in    
Wind  
Wind Speed 3 mph (North)    
Max Wind Speed 8 mph    
Max Gust Speed -    
Visibility 10 miles    
Events      
Averages and records for this station are not official NWS values.
T = Trace of Precipitation, MM = Missing Value Source: NWS Daily Summary

Daily Weather History Graph

Daily Weather History Graph

Search for Another Location

Airport:

Trip Planner

Search our weather history database for the weather conditions in past years. The results will help you decide how hot, cold, wet, or windy it might be!

Date:

Astronomy

Sep. 06, 2013 Rise Set
Actual Time 6:25 AM CDT 7:02 PM CDT
Civil Twilight 6:01 AM CDT 7:26 PM CDT
Nautical Twilight 5:32 AM CDT 7:54 PM CDT
Astronomical Twilight 5:03 AM CDT 8:23 PM CDT
Moon 7:28 AM CDT (9/6) 7:37 PM CDT (9/6)
Length of Visible Light 13h 25m
Length of Day
12h 36m
New Moon, 2% of the Moon is Illuminated
Sep 6
New Moon
Sep 12
First Quarter
Sep 19
Full
Sep 26
Last Quarter
Oct 4
New

Hourly Weather History & Observations

Time (CDT) Temp. Heat Index Dew Point Humidity Pressure Visibility Wind Dir Wind Speed Gust Speed Precip Events Conditions
12:53 AM 81.0 °F 86.2 °F 73.9 °F 79% 30.08 in 10.0 mi Calm Calm - N/A   Mostly Cloudy
1:53 AM 79.0 °F - 73.0 °F 82% 30.05 in 10.0 mi NNW 3.5 mph - N/A   Clear
2:53 AM 79.0 °F - 73.0 °F 82% 30.04 in 10.0 mi North 3.5 mph - N/A   Clear
3:53 AM 78.1 °F - 72.0 °F 81% 30.03 in 10.0 mi North 3.5 mph - N/A   Clear
4:53 AM 78.1 °F - 73.0 °F 84% 30.04 in 10.0 mi North 4.6 mph - N/A   Clear
5:53 AM 77.0 °F - 72.0 °F 84% 30.05 in 10.0 mi Calm Calm - N/A   Clear
6:53 AM 79.0 °F - 70.0 °F 74% 30.07 in 10.0 mi Calm Calm - N/A   Clear
7:53 AM 81.0 °F 84.9 °F 71.1 °F 72% 30.08 in 10.0 mi ENE 3.5 mph - N/A   Clear
8:53 AM 84.0 °F 88.4 °F 70.0 °F 63% 30.08 in 10.0 mi NNE 5.8 mph - N/A   Clear
9:53 AM 87.1 °F 92.0 °F 70.0 °F 57% 30.09 in 10.0 mi NE 4.6 mph - N/A   Clear
10:53 AM 89.1 °F 92.9 °F 68.0 °F 50% 30.09 in 10.0 mi NE 5.8 mph - N/A   Clear
11:53 AM 91.0 °F 94.3 °F 66.9 °F 45% 30.08 in 10.0 mi Variable 3.5 mph - N/A   Clear
12:53 PM 91.0 °F 94.3 °F 66.9 °F 45% 30.07 in 10.0 mi South 5.8 mph - N/A   Clear
1:53 PM 91.9 °F 94.5 °F 66.0 °F 42% 30.04 in 10.0 mi South 4.6 mph - N/A   Clear
2:53 PM 91.0 °F 95.2 °F 68.0 °F 47% 30.01 in 10.0 mi Variable 4.6 mph - N/A   Clear
3:53 PM 90.0 °F 93.6 °F 68.0 °F 48% 30.00 in 10.0 mi WSW 8.1 mph - N/A   Clear
4:53 PM 90.0 °F 94.5 °F 69.1 °F 50% 29.99 in 10.0 mi WSW 6.9 mph - N/A   Clear
5:53 PM 89.1 °F 94.1 °F 70.0 °F 53% 29.99 in 10.0 mi West 5.8 mph - N/A   Clear
6:53 PM 87.1 °F 92.0 °F 70.0 °F 57% 29.99 in 10.0 mi Calm Calm - N/A   Clear
7:53 PM 86.0 °F 91.5 °F 71.1 °F 61% 30.01 in 10.0 mi NW 3.5 mph - N/A   Clear
8:53 PM 84.0 °F 87.0 °F 68.0 °F 58% 30.02 in 10.0 mi Calm Calm - N/A   Clear
9:53 PM 82.0 °F 84.5 °F 66.9 °F 60% 30.02 in 10.0 mi Calm Calm - N/A   Clear
10:53 PM 82.0 °F 84.5 °F 66.9 °F 60% 30.01 in 10.0 mi Calm Calm - N/A   Clear
11:53 PM 80.1 °F 82.7 °F 68.0 °F 67% 30.01 in 10.0 mi NNE 3.5 mph - N/A   Clear